K0PFX-8 Weather Reports


Display with metric or nautical units.
time (UTC)temp
F
wind
direction
speed
MPH
gust
MPH
rain 1hr
in
rain 24hr
in
rain mn
in
humidity
%
barometer
mb
20260504173447 63 142 5.0 5.0 0.00 0.00 0.02 80 1007.0
20260504171952 63 156 3.0 0.0 0.00 0.00 0.01 75 1007.1
20260504171947 63 156 3.0 0.0 0.00 0.00 0.01 75 1007.1
20260504170446 63 231 3.0 0.0 0.00 0.00 0.01 74 1007.3
20260504150449 66 203 4.0 4.0 0.00 0.00 0.00 49 1008.8
20260504140451 69 253 4.0 8.0 0.00 0.00 0.00 46 1009.0
20260504130453 64 219 0.0 0.0 0.00 0.00 0.00 57 1009.7
20260504110455 60 173 0.0 0.0 0.00 0.00 0.00 64 1009.9
20260504100457 60 226 4.0 0.0 0.00 0.00 0.00 67 1010.2
20260504081958 61 243 0.0 0.0 0.00 0.00 0.00 72 1010.1
20260504080458 62 243 0.0 0.0 0.00 0.00 0.00 69 1009.9
20260504050503 66 229 7.0 7.0 0.00 0.00 0.00 46 1009.7
20260504045005 67 160 3.0 7.0 0.00 0.00 0.00 45 1009.3
20260504043504 67 215 7.0 6.0 0.00 0.00 0.00 44 1009.5
20260504042006 68 236 7.0 0.0 0.00 0.00 0.00 43 1010.0
20260504040505 68 249 7.0 6.0 0.00 0.00 0.00 45 1010.3
20260504035008 68 240 5.0 5.0 0.00 0.00 0.00 43 1009.8
20260504033506 69 249 2.0 0.0 0.00 0.00 0.00 43 1010.5
20260504032008 69 194 0.0 0.0 0.00 0.00 0.00 42 1010.6
20260504030507 69 179 1.0 0.0 0.00 0.00 0.00 42 1010.7
20260504025009 70 172 0.0 8.0 0.00 0.00 0.00 41 1010.5
20260504023508 70 248 0.0 0.0 0.00 0.00 0.00 42 1010.5
20260504022010 71 248 0.0 0.0 0.00 0.00 0.00 39 1010.6
20260504020517 71 263 0.0 0.0 0.00 0.30 0.00 37 1010.4
20260504020509 71 263 0.0 0.0 0.00 0.00 0.00 37 1010.4
20260504015010 72 246 3.0 6.0 0.00 0.00 0.00 36 1010.1
20260504013510 72 176 2.0 3.0 0.00 0.00 0.00 35 1010.0
20260504012011 73 239 3.0 3.0 0.00 0.00 0.00 34 1009.8
20260504010511 73 203 4.0 4.0 0.00 0.00 0.00 34 1009.7
20260504005013 73 212 0.0 0.0 0.00 0.00 0.00 33 1009.8
20260504003512 74 174 3.0 0.0 0.00 0.00 0.00 32 1009.8
20260504002013 74 226 5.0 0.0 0.00 0.00 0.00 31 1009.9
20260504000512 74 233 7.0 3.0 0.00 0.00 0.00 29 1009.9
20260503235014 75 243 6.0 5.0 0.00 0.00 0.00 28 1010.0
20260503233513 75 226 9.0 9.0 0.00 0.00 0.00 28 1010.2
20260503232015 76 236 7.0 16.0 0.00 0.00 0.00 26 1010.3
20260503230514 77 238 6.0 5.0 0.00 0.00 0.00 26 1010.5
20260503225016 77 226 14.0 10.0 0.00 0.00 0.00 25 1010.6
20260503223515 77 253 9.0 7.0 0.00 0.00 0.00 24 1010.8
20260503222017 77 218 14.0 7.0 0.00 0.00 0.00 22 1010.8
20260503220516 78 246 15.0 15.0 0.00 0.00 0.00 22 1010.9
20260503215018 77 238 13.0 17.0 0.00 0.00 0.00 23 1011.1
20260503213517 78 219 7.0 6.0 0.00 0.00 0.00 23 1011.1
20260503212019 77 253 11.0 21.0 0.00 0.00 0.00 24 1011.3
20260503210518 76 195 11.0 9.0 0.00 0.00 0.00 23 1011.4
20260503205019 76 207 10.0 13.0 0.00 0.00 0.00 23 1011.5
20260503203519 75 211 9.0 5.0 0.00 0.00 0.00 25 1011.8
20260503202020 74 214 11.0 15.0 0.00 0.00 0.00 25 1012.2
20260503200520 74 271 10.0 12.0 0.00 0.00 0.00 27 1012.5
20260503195021 74 211 8.0 7.0 0.00 0.00 0.00 28 1012.9
20260503193520 73 205 9.0 5.0 0.00 0.00 0.00 29 1013.2
20260503192022 71 236 10.0 9.0 0.00 0.00 0.00 27 1013.6
20260503190521 71 250 14.0 18.0 0.00 0.00 0.00 31 1013.9
20260503185023 71 201 4.0 6.0 0.00 0.00 0.00 28 1014.1
20260503183522 70 245 9.0 11.0 0.00 0.00 0.00 32 1014.4
20260503182023 69 208 10.0 9.0 0.00 0.00 0.00 32 1014.8
20260503180523 69 187 8.0 7.0 0.00 0.00 0.00 30 1015.4
20260503175025 67 222 13.0 11.0 0.00 0.00 0.00 31 1016.0